Location: Gad�tanya
(48.0500°N, 20.8500°E)
Time: 11:48:42
(UTC+00:00)

Cosmos 1331 Rocket - Pass Details

Date: 05 July 2020
Orbit: 749 x 778 km, 74.0° (Epoch: 14 August)

Event Time Altitude Azimuth Distance (km) Brightness Sun altitude
Rises 23:13:03 0° 337° (NNW) 3,271 8.3 -18.9°
Reaches altitude 10° 23:15:27 10° 338° (NNW) 2,340 7.4 -18.9°
Maximum altitude 23:20:47 84° 67° (ENE) 789 4.0 -18.7°
Enters shadow 23:23:39 28° 155° (SSE) 1,423 4.9 -18.7°
